sat.trackr.live / text

‹ back to catalog

STARLINK-6149

NORAD 57122 · 2023-090X

PAYLOAD ACTIVE UNKNOWN

§ Identity

Operator
Country
US
Launch date
2023-06-23
Launch site
AFETR
Launch vehicle
Mass (kg)
RCS (m²)

Purposes: comms

External: N2YO · Heavens-Above · Gunter

§ Orbital elements

Epoch: 2026-05-25T05:22:43.055616Z

Period
94.27 min
Inclination
43.0008°
Eccentricity
0.0001158
Mean motion
15.27556127 rev/d
Perigee alt
482.3 km
Apogee alt
483.9 km
Semi-major
6,861.3 km
B*
1.2267e-4
RAAN
209.6405°
Arg perigee
276.3628°
Mean anomaly
83.7092°
Rev number
16,203

§ Raw data

STARLINK-61491 57122U 23090X   26145.22410944  .00003113  00000+0  12267-3 0  99932 57122  43.0008 209.6405 0001158 276.3628  83.7092 15.27556127162031

JSON: /api/v1/satellites/57122 · /tle

For live sub-satellite position, see the globe view (requires WebGL).

§ Visibility from observer

Set your observer location to see the next 7 days of passes ≥ 10°. The values pass through the URL so the page stays shareable.

No JS? Fill the form by hand. The geolocation button needs JavaScript.